Погода в Уиле

Погода в Уиле : погода сейчас, прогноз погоды и архив. Всё, что Вы хотите узнать о погоде в Уиле!

Хотите узнать прогноз погоды в Уиле? Тогда Вам сюда: Погода в Уиле

Поиск расширенной информации на нашем сайте:

Другие новости

Новости СМИ2

Главная страница сайта

Новости сайта

02.10.2013

Напоминаем, что на нашем новом сайте вы можете получить высокодетализированные прогнозы погоды по пунктам России, СНГ и мира (включающие важные для авиации метеовеличины, такие как направление и скорость ветра, видимость, явления погоды, количество и форма облачности, нижняя и верхняя граница облачности), а также ознакомиться с разнообразными материалами по авиационной метеорологии и подборкой полезных ссылок на эту тему.

Сайт Метеоцентр.Азия посвящён разработке технологий оптимизации авиаметеорологического обслуживания, включая проектирование и перспективное создание нескольких автоматизированных авиаметеорологических систем:
- система выпуска высокодетальных прогностических карт явлений погоды для нижнего воздушного пространства по России и ближнему зарубежью;
- система верификации прогнозов TAF (выпускаемых синоптиками официальных АМСГ РФ и ближнего зарубежья) и AUTOTAF (выпускаемых сайтом Метеоцентр.Азия) - выявление ошибок, онлайн-сопоставление с фактической погодой METAR, автоматическое внесение коррективов в прогнозы при резком отклонении фактической погоды от прогноза, подсчёт оправдываемости прогнозов по элементам и в целом;
- система обработки, анализа и отображения авиаметеорологической информации для применения провайдерами метеорологической информации.


Погода в Уиле - сегодня

Время (UTC), дата Ветер
(°,м/с) 
Видим.   Явления Облачность Т
(°С)
Тd
(°С)
f(%) Тe
(°С)
Pmin
(гПа)
dP
(гПа)
Po
(мм)
O2
(г/м3)
Тmin Tmax R s Состояние
почвы
18 22.05.17 260 (З) н/о  {ливн. осадки}  10/10 600 м кучево-дожд. 
[Cb cap]
+17.4 +13 75 +23  1000.6  1.6  742  279    +23.2     
21 22.05.17 270 (З) н/о    8/8 600 м кучево-дожд. 
[Cb cap]
+15 +12.5 85 +20  1001.9  1.2  743  281           
00 23.05.17 260 (З) н/о    3/3 1000 м 
[Sc diur, vesp]
+11.7 +10.9 95 +14  1003.2  1.2  744  285           
03 23.05.17 250 (З) 10 км    9/9 600 м кучево-дожд. 
[Cb cap]
+13.3 +11.2 87 +16  1005.4  2.2  746  284           
06 23.05.17 290 (З) 10 км    10/10 1000 м кучево-дожд. 
[Cb cap]
+13.9 +11.3 84 +17  1007.1  1.6  747  284  +10.6         
09 23.05.17 280 (З) 10 км    9/5 600 м кучево-дожд., средняя, верхняя 
[Cb cap|Ac cuf|Ci fib]
+17.1 +12 72 +22  1007.9  748  281           
12 23.05.17 260 (З) 10 км    10/8 1000 м кучево-дожд., средняя 
[Cb cap|Ac cuf]
+17.7 +9.3 58 +18  1009.2  1.2  748  282           
15 23.05.17 290 (З) 10 км    8/8 1000 м кучево-дожд. 
[Cb cap]
+17.1 +5 45 +17  1010.2  749  283    +18.7       
18 23.05.17 270 (З) н/о    4/4 1000 м 
[Sc diur, vesp]
+11.8 +3.4 56 +12  1013.3  2.9  751  290    +18.7       
21 23.05.17 290 (З) н/о    ясно 
+9.4 +3.1 65 +9  1014.9  1.5  752  293           
00 24.05.17 300 (СЗ) н/о    ясно 
+7 +0.7 64 +6  1016.5  1.4  754  296           
03 24.05.17 300 (СЗ) 10 км    ясно 
+9.2 +0.8 56 +10  1018.1  1.8  755  294           
06 24.05.17 020 (С) 10 км    ясно 
+15.6 -1.4 31 +16  1018.7  0.8  755  288  +6.3         
09 24.05.17 360 (С) 10 км    1/0 верхняя 
[Ci fib]
+17.6 -1.1 28 +18  1018.7  0.1  756  286           
12 24.05.17 020 (С) 10 км    1/0 верхняя 
[Ci fib]
+19.2 -1.1 25 +20  1018  -0.7  755  284           
15 24.05.17 360 (С) 10 км    1/0 верхняя 
[Ci fib]
+18 -0.7 28 +18  1018.3  0.3  755  286    +20       
18 24.05.17 350 (С) н/о    ясно 
+13.1 +0.4 42 +13  1020  1.4  756  291    +20       
21 24.05.17 110 (В) н/о    ясно 
+10.2 -0.4 48 +11  1020.8  0.7  757  294           
00 25.05.17 220 (ЮЗ) н/о    ясно 
+7.4 +1.1 64 +8  1020.9  757  297           
03 25.05.17 060 (СВ) 10 км    6/0 верхняя 
[Cs]
+10.6 +2.1 56 +12  1021.4  0.7  757  293           
06 25.05.17 080 (В) 10 км    9/0 верхняя 
[Cs]
+18.1 -1 27 +18  1021  -0.2  757  286  +6.1         
09 25.05.17 040 (СВ) 10 км    9/0 верхняя 
[Cs]
+21.1 +0 24 +21  1019.6  -1.2  756  283           
12 25.05.17 030 (СВ) 10 км    9/0 верхняя 
[Cs]
+22.4 +1.5 25 +22  1018.1  -1.4  755  281           
15 25.05.17 180 (Ю) 10 км    9/0 средняя, верхняя 
[Ac cuf|Cs]
+19.6 +5.9 41 +20  1017.5  -0.7  755  283    +23.2       
18 25.05.17 120 (ЮВ) н/о    9/5 1000 м средняя, верхняя 
[Sc diur, vesp|Ac cuf|Ci fib]
+15.3 +7.9 61 +16  1018.2  0.4  755  287    +23.2       
Время (UTC), дата Ветер
(°,м/с) 
Видим.   Явления Облачность Т
(°С)
Тd
(°С)
f(%) Тe
(°С)
Pmin
(гПа)
dP
(гПа)
Po
(мм)
O2
(г/м3)
Тmin Tmax R s Состояние
почвы

Для получения пояснительной информации подведите курсор к названию столбца.

ПОГОДА в Уиле - архив

Всё, что Вы хотите узнать о погоде в Уиле - удобно и подробно!

Выберите нужную дату (начиная с 1 января 2015* года) и нажмите кнопку "Найти".
Будут отображены архивные сводки погоды по пункту Уил, начиная с указанной даты.


Отображать данные в формате CSV (для использования в таблицах Excel)


Внимание! Наш архив погоды предназначен исключительно для личного некоммерческого использования в познавательных целях. Если Вам необходимы официальные справки о состоянии погоды (для производственных, юридических, коммерческих и т.п. целей), обращайтесь в органы Росгидромета.

*Примечание: данная дата относится к архиву по метеостанциям СССР (Россия, СНГ, Балтия).
Архив по метеостанциям Зарубежной Европы и Азии (кроме Китая) хранится 10 дней, по другим регионам земного шара (Китай, Африка, Америка, Австралия, Океания) - 1 день.

Уил - район местоположения метеостанции


Название, широта, долгота, высота метеостанции:
Уил 49.1°ш. 54.7°д. 128 м над ур. моря [Казахстан]

Дополнительная информация

В oтличие oт бoльшинства пoгoдных сайтoв мы публикуем пoдрoбную метеoинфoрмацию в детальнoм прoфессиoнальнoм фoрмате.

Характеристики температуры и влажнoсти вoздуха измеряются на высoте 2 м в тени вдали oт зданий и деревьев.
Скoрoсть ветра измеряется на высoте 10 м (на урoвне рoста челoвека скoрoсть ветра ниже в 1.5-2 раза). Если метеoстанция нахoдится в гoрoде или в лесу, тo скoрoсть ветра занижена на 2-4 м/с пo сравнению с oткрытым местoм. Скoрoсть ветра над акватoриями крупных рек и oзёр, а также на вершинах хoлмoв на 2-5 м/с выше, чем в oбычных услoвиях.
Атмoсфернoе давление в разных тoчках местнoсти мoжет значительнo oтличаться oт давления на метеoстанции, в зависимoсти oт услoвий рельефа (при пoдъёме на 10 м давление пoнижается примернo на 1 мм рт.ст.).